Location: Newark
(0.5300°S, 127.4800°E)
Time: 20:00:31
(UTC+00:00)

A-11 Canister half - Pass Details

Date: 24 September 2019
Orbit: 1514 x 1686 km, 47.2° (Epoch: 18 October)

Event Time Altitude Azimuth Distance (km) Brightness Sun altitude
Rises 18:55:32 0° 190° (S) 4,918 11.6 -36.6°
Reaches altitude 10° 19:00:44 10° 168° (SSE) 3,904 11.2 -35.3°
Maximum altitude 19:05:59 15° 136° (SE) 3,457 11.2 -34.0°
Drops below altitude 10° 19:11:07 10° 103° (ESE) 3,832 11.9 -32.7°
Sets 19:16:03 0° 82° (E) 4,778 12.7 -31.5°
